Location: Newark
(37.8444°N, 127.0614°E)
Time: 00:33:08
(UTC+00:00)

XW-2F - Pass Details

Date: 28 January 2020
Orbit: 502 x 523 km, 97.5° (Epoch: 24 February)

Event Time Altitude Azimuth Distance (km) Brightness Sun altitude
Rises 09:34:30 0° 195° (SSW) 2,625 ? -9.2°
Reaches altitude 10° 09:36:55 10° 211° (SSW) 1,739 ? -9.6°
Maximum altitude 09:39:56 23° 264° (W) 1,134 ? -10.2°
Drops below altitude 10° 09:42:57 10° 318° (NW) 1,740 ? -10.8°
Sets 09:45:23 0° 333° (NNW) 2,627 ? -11.2°
